Retour au catalogue

SL-16 R/B

ActifLEO
NORAD 22566·ROCKET BODY·🇷🇺 Russia

Lancé Mar 26, 1993 depuis Baikonur Cosmodrome

Loading…

Prochains Passages (prochaines 24 heures)

TLE

FraisSource: Space-Track

Époque: Sep 14, 2026, 04:54 UTC

1 22566U 93016B   26257.20450697 -.00000177  00000-0 -66612-4 0  9997
2 22566  71.0076 179.2407 0009126  24.5149 335.6406 14.15316587728844

Suivez SL-16 R/B en temps réel avec AllMySat

Download on the App Store